Theta_e
300 302 302 304 305 307 307 308 310 316 323 323 323 325 325 328 331 335 336 335 335 335 335 334 334 334 333 331 330 326 324 323 323 324 324 323 325 325 325 326 326 326 327
298 300 301 302 304 305 306 308 309 314 320 324 323 327 327 328 330 331 332 336 335 334 334 333 331 332 332 331 329 328 325 325 321 320 320 317 323 326 326 326 325 326 326
297 299 300 301 303 303 305 306 308 313 318 322 325 324 323 324 325 327 329 330 333 335 335 334 332 333 332 328 328 329 328 324 322 323 323 316 316 319 324 325 325 326 325
299 300 302 303 303 304 305 306 308 313 318 322 321 321 322 321 324 325 327 327 329 331 335 334 332 332 331 329 328 329 328 326 322 320 323 326 323 318 316 320 320 321 322
302 303 305 304 306 307 307 308 310 315 320 322 320 320 321 323 324 325 325 326 327 328 329 332 331 328 329 328 327 327 326 326 323 322 320 322 323 321 317 315 319 320 320
300 302 305 309 311 311 310 311 314 316 320 321 320 320 320 322 323 325 325 325 327 327 328 329 331 329 328 328 327 327 326 325 323 323 322 322 320 319 317 316 316 315 319
298 299 300 302 306 310 310 311 313 314 318 321 321 320 321 322 321 323 323 323 324 325 327 328 328 328 327 327 328 327 326 324 323 322 322 323 322 321 317 315 316 314 316
298 298 300 302 304 308 309 311 312 313 315 318 319 320 323 323 324 325 325 326 326 324 326 326 326 327 327 326 325 324 323 322 322 321 322 322 322 320 319 317 315 311 311
297 297 299 304 306 306 305 309 313 313 315 317 318 320 322 323 323 324 326 323 324 325 326 324 323 323 323 324 324 323 322 321 321 321 321 321 320 320 320 320 319 316 311
296 297 298 300 301 302 302 304 312 315 316 316 314 312 310 312 314 315 315 316 318 322 322 322 322 321 321 322 322 321 321 321 321 322 321 321 321 320 320 320 319 318 316
295 296 297 298 299 300 301 303 305 304 306 306 306 305 306 307 307 306 306 307 308 309 311 313 313 313 314 317 320 320 321 320 321 321 321 321 321 320 320 320 320 318 318
295 295 296 297 297 298 298 299 300 301 301 302 301 301 302 303 302 302 303 304 303 304 304 305 305 306 306 307 308 308 310 310 311 316 319 319 320 320 321 320 318 317 317
293 293 294 295 296 296 297 296 298 298 299 299 298 298 298 298 298 298 299 300 300 301 301 301 301 301 302 302 303 303 303 304 305 307 308 310 312 313 315 316 315 315 314
292 292 292 293 295 296 296 296 296 297 297 297 296 296 296 297 298 297 297 297 297 297 298 298 298 299 300 301 301 301 301 302 302 303 304 304 306 308 310 310 311 311 310
291 291 291 291 293 294 295 295 295 295 295 293 293 293 295 295 295 295 295 294 294 294 295 295 295 296 297 299 299 300 300 300 300 301 301 302 302 301 304 305 307 309 308
290 290 291 291 291 292 293 294 294 294 294 292 291 292 292 293 293 292 292 292 291 292 292 292 292 292 292 296 298 299 297 297 297 298 299 300 299 301 302 303 304 305 305
290 290 290 290 290 290 291 292 292 293 292 291 291 290 290 290 290 291 290 290 290 290 290 290 290 289 289 293 294 295 296 295 295 296 296 297 298 298 299 300 301 302 304
290 290 290 290 290 290 290 291 291 290 290 289 289 289 289 288 288 288 288 288 289 288 288 288 288 287 287 291 292 294 294 294 294 295 295 295 296 297 298 298 298 299 300
290 290 290 290 290 290 290 289 289 288 288 287 287 287 287 286 286 286 286 287 287 287 287 287 287 286 287 290 291 291 291 291 291 292 294 294 294 296 298 297 295 296 298
290 290 290 289 288 288 288 287 286 285 285 285 285 286 286 286 285 286 286 287 286 286 286 285 286 286 286 288 290 290 289 287 287 289 290 293 293 295 296 295 295 293 295
290 289 287 285 285 286 286 284 283 283 284 284 285 285 285 284 285 285 285 285 284 284 283 283 284 284 285 286 289 290 288 287 286 286 287 289 292 293 294 295 294 294 297
289 288 285 284 284 284 283 281 281 282 282 282 282 282 282 283 284 284 284 283 282 281 281 280 282 284 284 286 288 289 290 290 287 286 286 287 289 291 291 292 293 295 296
286 284 283 281 281 281 280 279 279 280 280 280 280 280 281 282 282 282 281 281 280 280 281 281 282 283 284 285 287 288 289 290 288 287 287 289 290 290 290 291 291 292 292
283 282 281 279 279 279 279 279 280 280 279 279 279 280 280 280 280 280 281 280 280 280 281 281 281 282 283 283 285 286 287 288 288 288 288 289 289 289 289 289 290 291 290
281 280 279 279 278 278 278 279 280 279 279 279 279 279 279 278 279 279 280 280 281 283 282 282 282 282 281 284 287 287 287 288 288 288 287 286 285 285 285 286 287 287 289
279 278 278 278 277 277 278 279 279 279 277 277 278 279 278 278 279 278 279 282 283 284 284 285 284 284 286 287 288 288 288 288 288 286 283 283 283 283 283 283 283 285 287
Wind_Speed
16 13 13 12 12 12 12 13 12 13 9 7 7 6 7 7 7 7 7 10 9 13 11 7 9 10 10 11 12 8 8 6 3 4 5 6 9 12 9 8 8 8 9
13 13 11 10 12 13 13 12 14 13 12 9 9 5 7 6 7 7 7 8 12 11 10 11 9 11 9 12 13 12 5 5 8 5 2 3 5 6 9 8 8 10 3
13 12 10 10 10 12 13 14 13 14 13 13 8 5 3 3 5 7 8 10 10 11 12 12 11 11 10 10 13 13 15 10 5 7 4 2 7 2 1 7 6 7 5
11 11 12 10 10 13 11 13 12 12 12 14 12 15 10 8 7 7 7 8 11 13 13 13 12 12 10 12 12 11 12 11 10 2 7 7 3 3 3 1 0 2 3
11 11 11 11 10 10 10 10 11 12 12 12 13 12 11 7 5 6 8 10 10 13 13 14 14 13 11 13 14 14 14 10 9 6 3 9 6 3 2 3 2 2 2
14 13 12 10 9 8 9 10 12 13 14 13 13 15 12 9 7 7 7 7 8 8 13 14 14 14 14 15 13 14 15 12 9 6 7 8 5 8 7 7 5 4 4
14 13 11 10 9 9 9 9 12 13 14 15 13 14 11 10 11 10 9 9 8 8 11 15 14 12 13 13 13 13 12 9 8 8 6 6 8 3 3 3 4 5 3
13 12 11 7 6 6 3 5 7 9 11 13 13 10 8 6 7 10 9 8 7 5 7 10 10 14 13 11 9 8 6 5 5 6 6 6 6 5 5 5 5 3 5
20 18 17 3 2 16 13 10 6 6 7 6 7 5 4 8 9 11 10 5 5 6 8 6 5 4 4 5 6 5 7 5 4 5 8 7 6 6 6 6 7 7 6
21 21 19 18 17 18 16 13 4 8 8 10 10 9 9 8 8 7 6 8 4 5 5 4 4 3 1 3 4 2 3 4 4 6 9 9 7 7 6 8 8 8 9
17 17 17 20 24 23 17 14 17 20 15 16 14 14 11 9 10 10 11 11 12 11 11 9 9 10 9 7 2 1 3 7 8 9 10 11 10 8 8 9 9 9 9
12 13 14 16 17 15 16 18 19 20 17 14 17 13 8 6 14 14 14 10 12 11 11 9 10 10 9 8 8 8 6 6 8 8 8 9 7 14 14 10 12 9 9
11 11 12 13 14 13 12 12 13 13 12 10 15 12 5 15 13 12 13 10 10 11 10 10 9 8 8 5 3 3 4 4 4 4 5 5 4 6 5 5 5 5 5
8 9 10 11 10 11 12 12 13 12 12 14 13 11 12 13 13 12 12 12 12 12 12 12 11 10 9 10 10 9 8 8 6 7 7 7 6 7 6 5 6 5 5
6 7 8 8 9 10 10 11 11 11 11 13 13 12 11 11 10 10 11 11 11 10 10 10 10 10 9 8 10 9 9 9 9 8 7 7 7 9 10 7 7 6 7
4 4 6 7 8 8 8 9 10 10 10 11 11 9 8 10 11 10 10 10 10 10 10 11 10 10 8 15 16 13 9 9 9 10 10 9 10 9 11 11 12 12 9
4 4 5 5 5 5 5 8 8 7 10 10 10 10 9 9 9 8 8 9 9 8 9 9 9 9 8 15 15 15 7 7 8 8 10 10 7 11 11 14 15 14 16
4 4 4 4 4 3 5 6 7 7 8 9 8 8 7 7 6 7 7 6 6 6 5 6 7 7 6 14 15 16 8 8 8 9 10 10 12 13 12 12 12 13 11
5 4 4 3 4 5 4 6 6 5 6 6 6 5 5 5 6 8 8 6 7 7 8 8 9 10 10 18 18 15 8 8 9 9 9 10 12 17 20 13 11 12 12
5 5 4 4 5 4 4 7 8 10 11 9 8 7 7 6 6 5 5 4 4 5 5 6 7 10 8 13 14 13 8 10 9 11 13 17 17 20 21 13 13 13 10
6 6 5 5 4 4 6 9 7 7 5 6 6 7 6 6 5 4 3 4 5 5 5 6 7 8 8 10 15 17 9 8 9 9 9 9 19 22 23 24 14 14 14
6 5 5 4 5 6 5 5 6 5 6 6 6 6 5 4 4 5 5 6 6 6 7 7 7 5 7 11 13 17 18 17 10 10 10 12 22 25 25 22 24 25 21
5 4 6 6 6 5 5 6 5 6 5 5 5 4 6 3 4 5 5 5 4 4 6 7 8 9 9 10 20 18 19 19 12 8 16 25 24 24 20 23 25 23 10
5 4 6 5 4 4 5 4 3 4 3 3 4 4 4 4 3 3 4 4 6 7 7 8 9 9 10 10 9 10 9 12 11 13 10 15 19 18 17 15 13 9 8
4 5 5 4 4 3 3 3 4 4 4 3 3 3 3 5 4 4 6 5 5 8 8 8 8 8 8 9 17 15 9 8 11 16 7 7 7 9 9 10 10 10 9
5 5 5 5 3 3 3 3 3 3 2 2 3 5 4 5 6 8 7 10 13 17 15 14 11 8 15 19 21 19 19 21 21 9 7 8 8 9 9 9 10 9 10
Wind_Direction
276 259 246 234 232 236 237 233 226 220 208 204 207 195 195 197 196 202 174 179 187 184 186 183 186 188 193 195 184 178 187 197 158 260 278 260 261 254 249 239 245 243 240
282 275 260 240 230 234 231 231 222 216 205 201 210 198 184 204 206 194 187 194 189 193 192 189 191 192 198 198 202 198 201 218 171 176 163 301 273 245 234 227 229 242 233
281 279 276 245 238 234 231 228 222 211 207 203 197 178 133 153 188 194 203 207 201 192 195 203 197 200 202 207 206 210 201 207 187 192 174 113 238 314 200 234 216 219 226
280 272 277 267 239 242 236 229 225 221 207 192 200 202 201 196 201 204 208 205 209 214 209 210 206 208 207 209 207 207 212 210 203 180 214 216 233 236 291 229 292 263 216
318 301 283 261 248 245 226 216 218 208 201 194 209 205 199 207 201 196 202 211 213 216 219 220 215 210 209 214 211 209 211 210 217 201 130 211 218 213 220 273 219 242 206
334 326 320 302 273 249 237 204 199 203 195 194 202 208 204 203 211 204 207 209 212 214 220 221 222 220 221 215 212 215 210 206 208 200 201 206 186 212 213 240 253 254 266
337 328 322 313 310 291 232 203 192 198 200 196 191 195 194 201 218 224 226 223 219 219 222 221 219 221 217 214 213 219 213 202 201 202 212 227 232 177 154 178 263 237 226
352 343 330 305 284 315 178 208 199 198 174 172 180 180 188 202 222 225 219 220 211 196 220 216 223 225 212 200 194 202 199 191 193 213 220 222 225 182 206 167 208 237 230
6 7 4 64 139 53 34 20 214 188 178 171 142 158 208 227 226 227 208 187 169 161 149 135 130 114 129 139 168 187 180 184 185 229 228 223 222 203 199 200 213 223 254
5 10 25 39 57 45 26 6 49 174 142 106 82 68 56 38 48 59 70 75 36 120 136 149 121 141 204 138 182 172 193 180 209 217 222 221 221 216 205 216 214 215 235
359 8 25 33 45 39 19 35 67 69 69 75 70 58 46 35 67 63 52 53 57 41 50 44 60 52 29 21 354 297 216 214 231 224 226 232 225 224 218 216 218 220 220
360 8 28 39 49 44 29 30 46 62 59 63 71 59 39 59 61 54 52 43 56 49 46 36 52 47 43 20 29 23 19 17 6 338 261 235 250 248 234 214 214 214 210
13 15 28 44 48 45 45 46 49 57 66 76 72 64 45 58 61 63 56 46 53 53 42 42 41 39 45 47 31 34 25 17 28 303 313 332 318 310 291 260 245 233 226
18 24 31 35 41 49 53 54 54 51 55 61 64 53 44 52 55 53 52 46 44 47 43 42 39 32 27 23 16 13 5 356 342 330 332 324 320 307 302 288 263 252 245
43 39 40 30 31 48 57 59 56 55 58 60 53 45 45 48 52 52 53 50 47 44 42 36 34 29 29 18 9 4 356 349 335 326 320 311 305 296 288 283 284 267 250
93 70 51 45 51 42 44 53 56 57 66 70 68 62 54 49 49 46 46 45 39 36 35 33 27 22 16 6 1 357 347 343 335 324 319 314 303 296 284 279 259 256 263
137 115 91 86 64 50 64 73 68 64 59 57 49 44 46 48 46 47 45 40 33 29 30 27 20 11 1 0 356 352 342 330 322 319 320 321 314 308 305 295 280 263 250
160 144 124 100 68 60 59 70 66 65 60 54 48 42 43 43 33 38 37 31 22 24 19 15 4 354 346 351 348 342 336 322 313 313 308 306 308 310 305 300 291 284 267
152 150 136 98 66 59 69 81 70 76 69 57 53 45 43 43 35 33 24 20 13 7 5 358 355 352 339 342 341 343 331 323 314 301 301 306 303 302 301 292 285 276 277
140 135 108 88 73 37 72 68 47 40 30 15 14 16 16 19 18 11 9 4 352 335 335 327 322 315 314 314 320 324 327 321 322 318 313 311 305 305 304 303 295 283 276
130 106 90 86 64 45 59 59 51 37 0 1 6 7 4 353 347 339 334 321 310 303 307 305 305 308 311 314 323 326 326 316 310 314 309 306 307 305 311 303 292 286 284
122 122 116 91 56 45 65 61 44 357 6 3 4 357 349 344 342 331 323 330 331 329 324 320 325 329 319 322 326 325 323 321 315 313 314 309 307 307 305 303 297 303 298
139 136 122 93 58 47 50 62 13 5 5 11 6 347 339 330 336 325 324 328 315 330 347 351 348 341 339 336 333 322 317 311 305 310 303 310 308 305 302 297 292 296 297
141 117 109 102 94 68 63 61 12 359 7 13 353 345 348 1 328 337 340 349 360 357 350 344 342 338 332 324 319 316 310 300 296 301 295 297 307 314 310 310 302 288 276
119 116 126 118 98 86 73 38 17 10 358 337 331 332 356 356 4 11 2 356 359 351 348 342 323 312 303 299 303 313 322 307 302 312 318 313 321 309 313 309 311 310 285
123 112 115 125 145 137 90 29 355 330 321 8 14 10 11 4 1 353 352 3 349 345 337 332 327 317 314 316 318 325 322 320 320 325 317 312 313 310 318 320 315 308 309